ONEWEB-0277 (48995 NORAD) Tracking and Keplerian Element Data

This shows tracking and keplerian element data for the satellite.

Feedback or suggestion? Click here.




ElementValue
Catalog48995
NameONEWEB-0277
Epoch Orbit1385
Epoch Day269.25001157
Epoch Year2021
RAAN211.9113
Inclination87.9228
Eccentricity0.0011766
Argument of Perigee10.0276
Mean Anonmoly68.2018
Mean Motion13.38231206
Decay Rate1.4E-07
L11 48995U 21060AE 21269.25001157 .00000014 00000-0 00000+0 0 9999
L22 48995 87.9228 211.9113 0011766 10.0276 68.2018 13.38231206 13859

Live tracking and technical data element details for ONEWEB-0277 (NORAD 48995). ONEWEB-0277 can be tracked NOW for your location showing map with azimuth and elevation plus other details from your city location.

Track the satellite on the map from your city or location and see movement details for azimuth, elevation, latitude, longitude, range, height, and movement on the map or in text.







IsCatalogInMostPopularTable: catalog: 48995, numindb: 20
Update: records affected: 1



GetName: 48995 ONEWEB-0277

Hit Count: updated at: Sun, 26 Sep 2021 16:31:34 GMT